Index of /20260503/WXO-DD/model_rdps/10km/06/051
Name Last modified Size Description
Parent Directory -
20260503T06Z_MSC_RDPS_AbsoluteVorticity_IsbL-0250_RLatLon0.09_PT051H.grib2 2026-05-03 08:59 612K
20260503T06Z_MSC_RDPS_AbsoluteVorticity_IsbL-0500_RLatLon0.09_PT051H.grib2 2026-05-03 08:59 703K
20260503T06Z_MSC_RDPS_AbsoluteVorticity_IsbL-0700_RLatLon0.09_PT051H.grib2 2026-05-03 08:59 630K
20260503T06Z_MSC_RDPS_AbsoluteVorticity_IsbL-0850_RLatLon0.09_PT051H.grib2 2026-05-03 08:59 795K
20260503T06Z_MSC_RDPS_AirTemp_AGL-120m_RLatLon0.09_PT051H.grib2 2026-05-03 08:59 377K
20260503T06Z_MSC_RDPS_AirTemp_AGL-2m_RLatLon0.09_PT051H.grib2 2026-05-03 08:59 636K
20260503T06Z_MSC_RDPS_AirTemp_AGL-40m_RLatLon0.09_PT051H.grib2 2026-05-03 08:59 391K
20260503T06Z_MSC_RDPS_AirTemp_AGL-80m_RLatLon0.09_PT051H.grib2 2026-05-03 08:59 382K
20260503T06Z_MSC_RDPS_AirTemp_IsbL-0001_RLatLon0.09_PT051H.grib2 2026-05-03 08:59 304K
20260503T06Z_MSC_RDPS_AirTemp_IsbL-0005_RLatLon0.09_PT051H.grib2 2026-05-03 08:59 293K
20260503T06Z_MSC_RDPS_AirTemp_IsbL-0010_RLatLon0.09_PT051H.grib2 2026-05-03 08:59 302K
20260503T06Z_MSC_RDPS_AirTemp_IsbL-0020_RLatLon0.09_PT051H.grib2 2026-05-03 08:59 320K
20260503T06Z_MSC_RDPS_AirTemp_IsbL-0030_RLatLon0.09_PT051H.grib2 2026-05-03 08:59 339K
20260503T06Z_MSC_RDPS_AirTemp_IsbL-0050_RLatLon0.09_PT051H.grib2 2026-05-03 08:59 320K
20260503T06Z_MSC_RDPS_AirTemp_IsbL-0100_RLatLon0.09_PT051H.grib2 2026-05-03 08:59 432K
20260503T06Z_MSC_RDPS_AirTemp_IsbL-0150_RLatLon0.09_PT051H.grib2 2026-05-03 08:59 420K
20260503T06Z_MSC_RDPS_AirTemp_IsbL-0175_RLatLon0.09_PT051H.grib2 2026-05-03 08:59 410K
20260503T06Z_MSC_RDPS_AirTemp_IsbL-0200_RLatLon0.09_PT051H.grib2 2026-05-03 08:59 413K
20260503T06Z_MSC_RDPS_AirTemp_IsbL-0225_RLatLon0.09_PT051H.grib2 2026-05-03 08:59 414K
20260503T06Z_MSC_RDPS_AirTemp_IsbL-0250_RLatLon0.09_PT051H.grib2 2026-05-03 08:59 420K
20260503T06Z_MSC_RDPS_AirTemp_IsbL-0275_RLatLon0.09_PT051H.grib2 2026-05-03 08:59 404K
20260503T06Z_MSC_RDPS_AirTemp_IsbL-0300_RLatLon0.09_PT051H.grib2 2026-05-03 08:59 412K
20260503T06Z_MSC_RDPS_AirTemp_IsbL-0350_RLatLon0.09_PT051H.grib2 2026-05-03 08:59 427K
20260503T06Z_MSC_RDPS_AirTemp_IsbL-0400_RLatLon0.09_PT051H.grib2 2026-05-03 08:59 432K
20260503T06Z_MSC_RDPS_AirTemp_IsbL-0450_RLatLon0.09_PT051H.grib2 2026-05-03 08:59 439K
20260503T06Z_MSC_RDPS_AirTemp_IsbL-0500_RLatLon0.09_PT051H.grib2 2026-05-03 08:59 449K
20260503T06Z_MSC_RDPS_AirTemp_IsbL-0550_RLatLon0.09_PT051H.grib2 2026-05-03 08:59 466K
20260503T06Z_MSC_RDPS_AirTemp_IsbL-0600_RLatLon0.09_PT051H.grib2 2026-05-03 08:59 481K
20260503T06Z_MSC_RDPS_AirTemp_IsbL-0650_RLatLon0.09_PT051H.grib2 2026-05-03 08:59 460K
20260503T06Z_MSC_RDPS_AirTemp_IsbL-0700_RLatLon0.09_PT051H.grib2 2026-05-03 08:59 377K
20260503T06Z_MSC_RDPS_AirTemp_IsbL-0750_RLatLon0.09_PT051H.grib2 2026-05-03 08:59 411K
20260503T06Z_MSC_RDPS_AirTemp_IsbL-0800_RLatLon0.09_PT051H.grib2 2026-05-03 08:59 464K
20260503T06Z_MSC_RDPS_AirTemp_IsbL-0850_RLatLon0.09_PT051H.grib2 2026-05-03 08:59 520K
20260503T06Z_MSC_RDPS_AirTemp_IsbL-0875_RLatLon0.09_PT051H.grib2 2026-05-03 08:59 667K
20260503T06Z_MSC_RDPS_AirTemp_IsbL-0900_RLatLon0.09_PT051H.grib2 2026-05-03 08:59 541K
20260503T06Z_MSC_RDPS_AirTemp_IsbL-0925_RLatLon0.09_PT051H.grib2 2026-05-03 08:59 532K
20260503T06Z_MSC_RDPS_AirTemp_IsbL-0950_RLatLon0.09_PT051H.grib2 2026-05-03 08:59 526K
20260503T06Z_MSC_RDPS_AirTemp_IsbL-0970_RLatLon0.09_PT051H.grib2 2026-05-03 08:59 650K
20260503T06Z_MSC_RDPS_AirTemp_IsbL-0985_RLatLon0.09_PT051H.grib2 2026-05-03 08:59 505K
20260503T06Z_MSC_RDPS_AirTemp_IsbL-1000_RLatLon0.09_PT051H.grib2 2026-05-03 08:59 493K
20260503T06Z_MSC_RDPS_AirTemp_IsbL-1015_RLatLon0.09_PT051H.grib2 2026-05-03 08:59 500K
20260503T06Z_MSC_RDPS_Albedo_Sfc_RLatLon0.09_PT051H.grib2 2026-05-03 08:59 159K
20260503T06Z_MSC_RDPS_CAPE_Sfc_RLatLon0.09_PT051H.grib2 2026-05-03 08:59 1.7M
20260503T06Z_MSC_RDPS_CIN_Sfc_RLatLon0.09_PT051H.grib2 2026-05-03 08:59 1.1M
20260503T06Z_MSC_RDPS_CloudWater_EAtm_RLatLon0.09_PT051H.grib2 2026-05-03 08:59 222K
20260503T06Z_MSC_RDPS_ConvectivePrecip-Accum_Sfc_RLatLon0.09_PT051H.grib2 2026-05-03 08:59 1.1M
20260503T06Z_MSC_RDPS_DewPointDepression_AGL-2m_RLatLon0.09_PT051H.grib2 2026-05-03 08:59 401K
20260503T06Z_MSC_RDPS_DewPointDepression_IsbL-0001_RLatLon0.09_PT051H.grib2 2026-05-03 08:59 193
20260503T06Z_MSC_RDPS_DewPointDepression_IsbL-0005_RLatLon0.09_PT051H.grib2 2026-05-03 08:59 193
20260503T06Z_MSC_RDPS_DewPointDepression_IsbL-0010_RLatLon0.09_PT051H.grib2 2026-05-03 08:59 193
20260503T06Z_MSC_RDPS_DewPointDepression_IsbL-0020_RLatLon0.09_PT051H.grib2 2026-05-03 08:59 193
20260503T06Z_MSC_RDPS_DewPointDepression_IsbL-0030_RLatLon0.09_PT051H.grib2 2026-05-03 08:59 193
20260503T06Z_MSC_RDPS_DewPointDepression_IsbL-0050_RLatLon0.09_PT051H.grib2 2026-05-03 08:59 78K
20260503T06Z_MSC_RDPS_DewPointDepression_IsbL-0100_RLatLon0.09_PT051H.grib2 2026-05-03 08:59 117K
20260503T06Z_MSC_RDPS_DewPointDepression_IsbL-0150_RLatLon0.09_PT051H.grib2 2026-05-03 08:59 144K
20260503T06Z_MSC_RDPS_DewPointDepression_IsbL-0175_RLatLon0.09_PT051H.grib2 2026-05-03 08:59 179K
20260503T06Z_MSC_RDPS_DewPointDepression_IsbL-0200_RLatLon0.09_PT051H.grib2 2026-05-03 08:59 218K
20260503T06Z_MSC_RDPS_DewPointDepression_IsbL-0225_RLatLon0.09_PT051H.grib2 2026-05-03 08:59 256K
20260503T06Z_MSC_RDPS_DewPointDepression_IsbL-0250_RLatLon0.09_PT051H.grib2 2026-05-03 08:59 295K
20260503T06Z_MSC_RDPS_DewPointDepression_IsbL-0275_RLatLon0.09_PT051H.grib2 2026-05-03 08:59 303K
20260503T06Z_MSC_RDPS_DewPointDepression_IsbL-0300_RLatLon0.09_PT051H.grib2 2026-05-03 08:59 323K
20260503T06Z_MSC_RDPS_DewPointDepression_IsbL-0350_RLatLon0.09_PT051H.grib2 2026-05-03 08:59 331K
20260503T06Z_MSC_RDPS_DewPointDepression_IsbL-0400_RLatLon0.09_PT051H.grib2 2026-05-03 08:59 342K
20260503T06Z_MSC_RDPS_DewPointDepression_IsbL-0450_RLatLon0.09_PT051H.grib2 2026-05-03 08:59 344K
20260503T06Z_MSC_RDPS_DewPointDepression_IsbL-0500_RLatLon0.09_PT051H.grib2 2026-05-03 08:59 350K
20260503T06Z_MSC_RDPS_DewPointDepression_IsbL-0550_RLatLon0.09_PT051H.grib2 2026-05-03 08:59 361K
20260503T06Z_MSC_RDPS_DewPointDepression_IsbL-0600_RLatLon0.09_PT051H.grib2 2026-05-03 08:59 367K
20260503T06Z_MSC_RDPS_DewPointDepression_IsbL-0650_RLatLon0.09_PT051H.grib2 2026-05-03 08:59 374K
20260503T06Z_MSC_RDPS_DewPointDepression_IsbL-0700_RLatLon0.09_PT051H.grib2 2026-05-03 08:59 384K
20260503T06Z_MSC_RDPS_DewPointDepression_IsbL-0750_RLatLon0.09_PT051H.grib2 2026-05-03 08:59 403K
20260503T06Z_MSC_RDPS_DewPointDepression_IsbL-0800_RLatLon0.09_PT051H.grib2 2026-05-03 08:59 442K
20260503T06Z_MSC_RDPS_DewPointDepression_IsbL-0850_RLatLon0.09_PT051H.grib2 2026-05-03 08:59 476K
20260503T06Z_MSC_RDPS_DewPointDepression_IsbL-0875_RLatLon0.09_PT051H.grib2 2026-05-03 08:59 475K
20260503T06Z_MSC_RDPS_DewPointDepression_IsbL-0900_RLatLon0.09_PT051H.grib2 2026-05-03 08:59 463K
20260503T06Z_MSC_RDPS_DewPointDepression_IsbL-0925_RLatLon0.09_PT051H.grib2 2026-05-03 08:59 448K
20260503T06Z_MSC_RDPS_DewPointDepression_IsbL-0950_RLatLon0.09_PT051H.grib2 2026-05-03 08:59 440K
20260503T06Z_MSC_RDPS_DewPointDepression_IsbL-0970_RLatLon0.09_PT051H.grib2 2026-05-03 08:59 436K
20260503T06Z_MSC_RDPS_DewPointDepression_IsbL-0985_RLatLon0.09_PT051H.grib2 2026-05-03 08:59 431K
20260503T06Z_MSC_RDPS_DewPointDepression_IsbL-1000_RLatLon0.09_PT051H.grib2 2026-05-03 08:59 427K
20260503T06Z_MSC_RDPS_DewPointDepression_IsbL-1015_RLatLon0.09_PT051H.grib2 2026-05-03 08:59 420K
20260503T06Z_MSC_RDPS_DewPoint_AGL-2m_RLatLon0.09_PT051H.grib2 2026-05-03 08:59 306K
20260503T06Z_MSC_RDPS_DownwardLongwaveRadiationFlux-Accum_Sfc_RLatLon0.09_PT051H.grib2 2026-05-03 08:59 379K
20260503T06Z_MSC_RDPS_DownwardShortwaveRadiationFlux-Accum_NTAtm_RLatLon0.09_PT051H.grib2 2026-05-03 08:59 118K
20260503T06Z_MSC_RDPS_DownwardShortwaveRadiationFlux-Accum_Sfc_RLatLon0.09_PT051H.grib2 2026-05-03 08:59 569K
20260503T06Z_MSC_RDPS_FreezingRain-Accum1h_Sfc_RLatLon0.09_PT051H.grib2 2026-05-03 08:59 41K
20260503T06Z_MSC_RDPS_FreezingRain-Accum3h_Sfc_RLatLon0.09_PT051H.grib2 2026-05-03 08:59 40K
20260503T06Z_MSC_RDPS_FreezingRain-Accum_Sfc_RLatLon0.09_PT051H.grib2 2026-05-03 08:59 170K
20260503T06Z_MSC_RDPS_GeopotentialHeight_IsbL-0001_RLatLon0.09_PT051H.grib2 2026-05-03 08:59 242K
20260503T06Z_MSC_RDPS_GeopotentialHeight_IsbL-0005_RLatLon0.09_PT051H.grib2 2026-05-03 08:59 342K
20260503T06Z_MSC_RDPS_GeopotentialHeight_IsbL-0010_RLatLon0.09_PT051H.grib2 2026-05-03 08:59 313K
20260503T06Z_MSC_RDPS_GeopotentialHeight_IsbL-0020_RLatLon0.09_PT051H.grib2 2026-05-03 08:59 410K
20260503T06Z_MSC_RDPS_GeopotentialHeight_IsbL-0030_RLatLon0.09_PT051H.grib2 2026-05-03 08:59 388K
20260503T06Z_MSC_RDPS_GeopotentialHeight_IsbL-0050_RLatLon0.09_PT051H.grib2 2026-05-03 08:59 316K
20260503T06Z_MSC_RDPS_GeopotentialHeight_IsbL-0100_RLatLon0.09_PT051H.grib2 2026-05-03 08:59 288K
20260503T06Z_MSC_RDPS_GeopotentialHeight_IsbL-0150_RLatLon0.09_PT051H.grib2 2026-05-03 08:59 232K
20260503T06Z_MSC_RDPS_GeopotentialHeight_IsbL-0175_RLatLon0.09_PT051H.grib2 2026-05-03 08:59 234K
20260503T06Z_MSC_RDPS_GeopotentialHeight_IsbL-0200_RLatLon0.09_PT051H.grib2 2026-05-03 08:59 237K
20260503T06Z_MSC_RDPS_GeopotentialHeight_IsbL-0225_RLatLon0.09_PT051H.grib2 2026-05-03 08:59 239K
20260503T06Z_MSC_RDPS_GeopotentialHeight_IsbL-0250_RLatLon0.09_PT051H.grib2 2026-05-03 08:59 239K
20260503T06Z_MSC_RDPS_GeopotentialHeight_IsbL-0275_RLatLon0.09_PT051H.grib2 2026-05-03 08:59 238K
20260503T06Z_MSC_RDPS_GeopotentialHeight_IsbL-0300_RLatLon0.09_PT051H.grib2 2026-05-03 08:59 237K
20260503T06Z_MSC_RDPS_GeopotentialHeight_IsbL-0350_RLatLon0.09_PT051H.grib2 2026-05-03 08:59 233K
20260503T06Z_MSC_RDPS_GeopotentialHeight_IsbL-0400_RLatLon0.09_PT051H.grib2 2026-05-03 08:59 305K
20260503T06Z_MSC_RDPS_GeopotentialHeight_IsbL-0450_RLatLon0.09_PT051H.grib2 2026-05-03 08:59 301K
20260503T06Z_MSC_RDPS_GeopotentialHeight_IsbL-0500_RLatLon0.09_PT051H.grib2 2026-05-03 08:59 296K
20260503T06Z_MSC_RDPS_GeopotentialHeight_IsbL-0550_RLatLon0.09_PT051H.grib2 2026-05-03 08:59 293K
20260503T06Z_MSC_RDPS_GeopotentialHeight_IsbL-0600_RLatLon0.09_PT051H.grib2 2026-05-03 08:59 262K
20260503T06Z_MSC_RDPS_GeopotentialHeight_IsbL-0650_RLatLon0.09_PT051H.grib2 2026-05-03 08:59 259K
20260503T06Z_MSC_RDPS_GeopotentialHeight_IsbL-0700_RLatLon0.09_PT051H.grib2 2026-05-03 08:59 258K
20260503T06Z_MSC_RDPS_GeopotentialHeight_IsbL-0750_RLatLon0.09_PT051H.grib2 2026-05-03 08:59 260K
20260503T06Z_MSC_RDPS_GeopotentialHeight_IsbL-0800_RLatLon0.09_PT051H.grib2 2026-05-03 08:59 355K
20260503T06Z_MSC_RDPS_GeopotentialHeight_IsbL-0850_RLatLon0.09_PT051H.grib2 2026-05-03 08:59 279K
20260503T06Z_MSC_RDPS_GeopotentialHeight_IsbL-0875_RLatLon0.09_PT051H.grib2 2026-05-03 08:59 281K
20260503T06Z_MSC_RDPS_GeopotentialHeight_IsbL-0900_RLatLon0.09_PT051H.grib2 2026-05-03 08:59 282K
20260503T06Z_MSC_RDPS_GeopotentialHeight_IsbL-0925_RLatLon0.09_PT051H.grib2 2026-05-03 08:59 284K
20260503T06Z_MSC_RDPS_GeopotentialHeight_IsbL-0950_RLatLon0.09_PT051H.grib2 2026-05-03 08:59 286K
20260503T06Z_MSC_RDPS_GeopotentialHeight_IsbL-0970_RLatLon0.09_PT051H.grib2 2026-05-03 08:59 289K
20260503T06Z_MSC_RDPS_GeopotentialHeight_IsbL-0985_RLatLon0.09_PT051H.grib2 2026-05-03 08:59 295K
20260503T06Z_MSC_RDPS_GeopotentialHeight_IsbL-1000_RLatLon0.09_PT051H.grib2 2026-05-03 08:59 304K
20260503T06Z_MSC_RDPS_GeopotentialHeight_IsbL-1015_RLatLon0.09_PT051H.grib2 2026-05-03 08:59 315K
20260503T06Z_MSC_RDPS_Humidex_Sfc_RLatLon0.09_PT051H.grib2 2026-05-03 08:59 2.4M
20260503T06Z_MSC_RDPS_IcePellets-Accum1h_Sfc_RLatLon0.09_PT051H.grib2 2026-05-03 08:59 10K
20260503T06Z_MSC_RDPS_IcePellets-Accum3h_Sfc_RLatLon0.09_PT051H.grib2 2026-05-03 08:59 12K
20260503T06Z_MSC_RDPS_IcePellets-Accum_Sfc_RLatLon0.09_PT051H.grib2 2026-05-03 08:59 27K
20260503T06Z_MSC_RDPS_KIndex_Sfc_RLatLon0.09_PT051H.grib2 2026-05-03 08:59 2.5M
20260503T06Z_MSC_RDPS_LatentHeatNetFlux_Sfc_RLatLon0.09_PT051H.grib2 2026-05-03 08:59 329K
20260503T06Z_MSC_RDPS_LiftedIndex-MU-VT_IsbL-0500_RLatLon0.09_PT051H.grib2 2026-05-03 08:59 2.4M
20260503T06Z_MSC_RDPS_NetLongwaveRadiationFlux-Accum_Sfc_RLatLon0.09_PT051H.grib2 2026-05-03 08:59 558K
20260503T06Z_MSC_RDPS_NetShortwaveRadiationFlux-Accum_Sfc_RLatLon0.09_PT051H.grib2 2026-05-03 08:59 569K
20260503T06Z_MSC_RDPS_PlanetaryBoundaryLayerHeight_Sfc_RLatLon0.09_PT051H.grib2 2026-05-03 08:59 1.2M
20260503T06Z_MSC_RDPS_Precip-Accum1h_Sfc_RLatLon0.09_PT051H.grib2 2026-05-03 08:59 1.3M
20260503T06Z_MSC_RDPS_Precip-Accum3h_Sfc_RLatLon0.09_PT051H.grib2 2026-05-03 08:59 1.4M
20260503T06Z_MSC_RDPS_Precip-Accum_Sfc_RLatLon0.09_PT051H.grib2 2026-05-03 08:59 2.1M
20260503T06Z_MSC_RDPS_PrecipRate_Sfc_RLatLon0.09_PT051H.grib2 2026-05-03 08:59 190K
20260503T06Z_MSC_RDPS_PrecipType-Instant_Sfc_RLatLon0.09_PT051H.grib2 2026-05-03 08:59 622K
20260503T06Z_MSC_RDPS_Pressure-Trend3h_Sfc_RLatLon0.09_PT051H.grib2 2026-05-03 08:59 1.2M
20260503T06Z_MSC_RDPS_Pressure_MSL_RLatLon0.09_PT051H.grib2 2026-05-03 08:59 239K
20260503T06Z_MSC_RDPS_Pressure_PVU-1.5_RLatLon0.09_PT051H.grib2 2026-05-03 08:59 2.5M
20260503T06Z_MSC_RDPS_Pressure_PVU-1_RLatLon0.09_PT051H.grib2 2026-05-03 08:59 2.4M
20260503T06Z_MSC_RDPS_Pressure_PVU-2_RLatLon0.09_PT051H.grib2 2026-05-03 08:59 2.4M
20260503T06Z_MSC_RDPS_Pressure_Sfc_RLatLon0.09_PT051H.grib2 2026-05-03 08:59 499K
20260503T06Z_MSC_RDPS_RadiativeTemp_Sfc_RLatLon0.09_PT051H.grib2 2026-05-03 08:59 301K
20260503T06Z_MSC_RDPS_Rain-Accum1h_Sfc_RLatLon0.09_PT051H.grib2 2026-05-03 08:59 666K
20260503T06Z_MSC_RDPS_Rain-Accum3h_Sfc_RLatLon0.09_PT051H.grib2 2026-05-03 08:59 736K
20260503T06Z_MSC_RDPS_Rain-Accum_Sfc_RLatLon0.09_PT051H.grib2 2026-05-03 08:59 1.7M
20260503T06Z_MSC_RDPS_RelativeHumidity_AGL-2m_RLatLon0.09_PT051H.grib2 2026-05-03 08:59 1.0M
20260503T06Z_MSC_RDPS_RelativeHumidity_IsbL-0010_RLatLon0.09_PT051H.grib2 2026-05-03 08:59 619K
20260503T06Z_MSC_RDPS_RelativeHumidity_IsbL-0020_RLatLon0.09_PT051H.grib2 2026-05-03 08:59 743K
20260503T06Z_MSC_RDPS_RelativeHumidity_IsbL-0030_RLatLon0.09_PT051H.grib2 2026-05-03 08:59 603K
20260503T06Z_MSC_RDPS_RelativeHumidity_IsbL-0050_RLatLon0.09_PT051H.grib2 2026-05-03 08:59 362K
20260503T06Z_MSC_RDPS_RelativeHumidity_IsbL-0100_RLatLon0.09_PT051H.grib2 2026-05-03 08:59 284K
20260503T06Z_MSC_RDPS_RelativeHumidity_IsbL-0150_RLatLon0.09_PT051H.grib2 2026-05-03 08:59 418K
20260503T06Z_MSC_RDPS_RelativeHumidity_IsbL-0175_RLatLon0.09_PT051H.grib2 2026-05-03 08:59 484K
20260503T06Z_MSC_RDPS_RelativeHumidity_IsbL-0200_RLatLon0.09_PT051H.grib2 2026-05-03 08:59 561K
20260503T06Z_MSC_RDPS_RelativeHumidity_IsbL-0225_RLatLon0.09_PT051H.grib2 2026-05-03 08:59 626K
20260503T06Z_MSC_RDPS_RelativeHumidity_IsbL-0250_RLatLon0.09_PT051H.grib2 2026-05-03 08:59 684K
20260503T06Z_MSC_RDPS_RelativeHumidity_IsbL-0275_RLatLon0.09_PT051H.grib2 2026-05-03 08:59 706K
20260503T06Z_MSC_RDPS_RelativeHumidity_IsbL-0300_RLatLon0.09_PT051H.grib2 2026-05-03 08:59 747K
20260503T06Z_MSC_RDPS_RelativeHumidity_IsbL-0350_RLatLon0.09_PT051H.grib2 2026-05-03 08:59 771K
20260503T06Z_MSC_RDPS_RelativeHumidity_IsbL-0400_RLatLon0.09_PT051H.grib2 2026-05-03 08:59 789K
20260503T06Z_MSC_RDPS_RelativeHumidity_IsbL-0450_RLatLon0.09_PT051H.grib2 2026-05-03 08:59 791K
20260503T06Z_MSC_RDPS_RelativeHumidity_IsbL-0500_RLatLon0.09_PT051H.grib2 2026-05-03 08:59 796K
20260503T06Z_MSC_RDPS_RelativeHumidity_IsbL-0550_RLatLon0.09_PT051H.grib2 2026-05-03 08:59 822K
20260503T06Z_MSC_RDPS_RelativeHumidity_IsbL-0600_RLatLon0.09_PT051H.grib2 2026-05-03 08:59 836K
20260503T06Z_MSC_RDPS_RelativeHumidity_IsbL-0650_RLatLon0.09_PT051H.grib2 2026-05-03 08:59 841K
20260503T06Z_MSC_RDPS_RelativeHumidity_IsbL-0700_RLatLon0.09_PT051H.grib2 2026-05-03 08:59 875K
20260503T06Z_MSC_RDPS_RelativeHumidity_IsbL-0750_RLatLon0.09_PT051H.grib2 2026-05-03 08:59 908K
20260503T06Z_MSC_RDPS_RelativeHumidity_IsbL-0800_RLatLon0.09_PT051H.grib2 2026-05-03 08:59 1.0M
20260503T06Z_MSC_RDPS_RelativeHumidity_IsbL-0850_RLatLon0.09_PT051H.grib2 2026-05-03 08:59 1.0M
20260503T06Z_MSC_RDPS_RelativeHumidity_IsbL-0875_RLatLon0.09_PT051H.grib2 2026-05-03 08:59 1.1M
20260503T06Z_MSC_RDPS_RelativeHumidity_IsbL-0900_RLatLon0.09_PT051H.grib2 2026-05-03 08:59 1.1M
20260503T06Z_MSC_RDPS_RelativeHumidity_IsbL-0925_RLatLon0.09_PT051H.grib2 2026-05-03 08:59 1.1M
20260503T06Z_MSC_RDPS_RelativeHumidity_IsbL-0950_RLatLon0.09_PT051H.grib2 2026-05-03 08:59 1.1M
20260503T06Z_MSC_RDPS_RelativeHumidity_IsbL-0970_RLatLon0.09_PT051H.grib2 2026-05-03 08:59 1.1M
20260503T06Z_MSC_RDPS_RelativeHumidity_IsbL-0985_RLatLon0.09_PT051H.grib2 2026-05-03 08:59 1.0M
20260503T06Z_MSC_RDPS_RelativeHumidity_IsbL-1000_RLatLon0.09_PT051H.grib2 2026-05-03 08:59 1.0M
20260503T06Z_MSC_RDPS_RelativeHumidity_IsbL-1015_RLatLon0.09_PT051H.grib2 2026-05-03 08:59 1.0M
20260503T06Z_MSC_RDPS_Runoff-Accum_Sfc_RLatLon0.09_PT051H.grib2 2026-05-03 08:59 55K
20260503T06Z_MSC_RDPS_SWEATIndex_Sfc_RLatLon0.09_PT051H.grib2 2026-05-03 08:59 2.4M
20260503T06Z_MSC_RDPS_SeeingIndex_EAtm_RLatLon0.09_PT051H.grib2 2026-05-03 08:59 1.0M
20260503T06Z_MSC_RDPS_SensibleHeatNetFlux_Sfc_RLatLon0.09_PT051H.grib2 2026-05-03 08:59 303K
20260503T06Z_MSC_RDPS_ShowalterIndex_IsbL-0500_RLatLon0.09_PT051H.grib2 2026-05-03 08:59 2.6M
20260503T06Z_MSC_RDPS_SkyTransparencyIndex_EAtm_RLatLon0.09_PT051H.grib2 2026-05-03 08:59 708K
20260503T06Z_MSC_RDPS_Snow-Accum1h_Sfc_RLatLon0.09_PT051H.grib2 2026-05-03 08:59 395K
20260503T06Z_MSC_RDPS_Snow-Accum3h_Sfc_RLatLon0.09_PT051H.grib2 2026-05-03 08:59 398K
20260503T06Z_MSC_RDPS_Snow-Accum_Sfc_RLatLon0.09_PT051H.grib2 2026-05-03 08:59 740K
20260503T06Z_MSC_RDPS_SnowDensity_Sfc_RLatLon0.09_PT051H.grib2 2026-05-03 08:59 174K
20260503T06Z_MSC_RDPS_SnowDepth_Sfc_RLatLon0.09_PT051H.grib2 2026-05-03 08:59 656K
20260503T06Z_MSC_RDPS_SoilTemp_DBS-0to10cm_RLatLon0.09_PT051H.grib2 2026-05-03 08:59 238K
20260503T06Z_MSC_RDPS_SoilTemp_Sfc_RLatLon0.09_PT051H.grib2 2026-05-03 08:59 263K
20260503T06Z_MSC_RDPS_SoilVolumetricIceContent_Sfc_RLatLon0.09_PT051H.grib2 2026-05-03 08:59 153K
20260503T06Z_MSC_RDPS_SoilVolumetricWaterContent_DBS-0to10cm_RLatLon0.09_PT051H.grib2 2026-05-03 08:59 277K
20260503T06Z_MSC_RDPS_SoilVolumetricWaterContent_DBS-0to1cm_RLatLon0.09_PT051H.grib2 2026-05-03 08:59 341K
20260503T06Z_MSC_RDPS_SpecificHumidity_AGL-120m_RLatLon0.09_PT051H.grib2 2026-05-03 08:59 492K
20260503T06Z_MSC_RDPS_SpecificHumidity_AGL-2m_RLatLon0.09_PT051H.grib2 2026-05-03 08:59 662K
20260503T06Z_MSC_RDPS_SpecificHumidity_AGL-40m_RLatLon0.09_PT051H.grib2 2026-05-03 08:59 498K
20260503T06Z_MSC_RDPS_SpecificHumidity_AGL-80m_RLatLon0.09_PT051H.grib2 2026-05-03 08:59 493K
20260503T06Z_MSC_RDPS_SpecificHumidity_IsbL-0001_RLatLon0.09_PT051H.grib2 2026-05-03 08:59 400K
20260503T06Z_MSC_RDPS_SpecificHumidity_IsbL-0005_RLatLon0.09_PT051H.grib2 2026-05-03 08:59 368K
20260503T06Z_MSC_RDPS_SpecificHumidity_IsbL-0010_RLatLon0.09_PT051H.grib2 2026-05-03 08:59 400K
20260503T06Z_MSC_RDPS_SpecificHumidity_IsbL-0020_RLatLon0.09_PT051H.grib2 2026-05-03 08:59 382K
20260503T06Z_MSC_RDPS_SpecificHumidity_IsbL-0030_RLatLon0.09_PT051H.grib2 2026-05-03 08:59 374K
20260503T06Z_MSC_RDPS_SpecificHumidity_IsbL-0050_RLatLon0.09_PT051H.grib2 2026-05-03 08:59 454K
20260503T06Z_MSC_RDPS_SpecificHumidity_IsbL-0100_RLatLon0.09_PT051H.grib2 2026-05-03 08:59 420K
20260503T06Z_MSC_RDPS_SpecificHumidity_IsbL-0150_RLatLon0.09_PT051H.grib2 2026-05-03 08:59 453K
20260503T06Z_MSC_RDPS_SpecificHumidity_IsbL-0175_RLatLon0.09_PT051H.grib2 2026-05-03 08:59 444K
20260503T06Z_MSC_RDPS_SpecificHumidity_IsbL-0200_RLatLon0.09_PT051H.grib2 2026-05-03 08:59 461K
20260503T06Z_MSC_RDPS_SpecificHumidity_IsbL-0225_RLatLon0.09_PT051H.grib2 2026-05-03 08:59 462K
20260503T06Z_MSC_RDPS_SpecificHumidity_IsbL-0250_RLatLon0.09_PT051H.grib2 2026-05-03 08:59 518K
20260503T06Z_MSC_RDPS_SpecificHumidity_IsbL-0275_RLatLon0.09_PT051H.grib2 2026-05-03 08:59 476K
20260503T06Z_MSC_RDPS_SpecificHumidity_IsbL-0300_RLatLon0.09_PT051H.grib2 2026-05-03 08:59 574K
20260503T06Z_MSC_RDPS_SpecificHumidity_IsbL-0350_RLatLon0.09_PT051H.grib2 2026-05-03 08:59 446K
20260503T06Z_MSC_RDPS_SpecificHumidity_IsbL-0400_RLatLon0.09_PT051H.grib2 2026-05-03 08:59 528K
20260503T06Z_MSC_RDPS_SpecificHumidity_IsbL-0450_RLatLon0.09_PT051H.grib2 2026-05-03 08:59 575K
20260503T06Z_MSC_RDPS_SpecificHumidity_IsbL-0500_RLatLon0.09_PT051H.grib2 2026-05-03 08:59 508K
20260503T06Z_MSC_RDPS_SpecificHumidity_IsbL-0550_RLatLon0.09_PT051H.grib2 2026-05-03 08:59 579K
20260503T06Z_MSC_RDPS_SpecificHumidity_IsbL-0600_RLatLon0.09_PT051H.grib2 2026-05-03 08:59 626K
20260503T06Z_MSC_RDPS_SpecificHumidity_IsbL-0650_RLatLon0.09_PT051H.grib2 2026-05-03 08:59 542K
20260503T06Z_MSC_RDPS_SpecificHumidity_IsbL-0700_RLatLon0.09_PT051H.grib2 2026-05-03 08:59 585K
20260503T06Z_MSC_RDPS_SpecificHumidity_IsbL-0750_RLatLon0.09_PT051H.grib2 2026-05-03 08:59 640K
20260503T06Z_MSC_RDPS_SpecificHumidity_IsbL-0800_RLatLon0.09_PT051H.grib2 2026-05-03 08:59 726K
20260503T06Z_MSC_RDPS_SpecificHumidity_IsbL-0850_RLatLon0.09_PT051H.grib2 2026-05-03 08:59 807K
20260503T06Z_MSC_RDPS_SpecificHumidity_IsbL-0875_RLatLon0.09_PT051H.grib2 2026-05-03 08:59 834K
20260503T06Z_MSC_RDPS_SpecificHumidity_IsbL-0900_RLatLon0.09_PT051H.grib2 2026-05-03 08:59 844K
20260503T06Z_MSC_RDPS_SpecificHumidity_IsbL-0925_RLatLon0.09_PT051H.grib2 2026-05-03 08:59 844K
20260503T06Z_MSC_RDPS_SpecificHumidity_IsbL-0950_RLatLon0.09_PT051H.grib2 2026-05-03 08:59 702K
20260503T06Z_MSC_RDPS_SpecificHumidity_IsbL-0970_RLatLon0.09_PT051H.grib2 2026-05-03 08:59 697K
20260503T06Z_MSC_RDPS_SpecificHumidity_IsbL-0985_RLatLon0.09_PT051H.grib2 2026-05-03 08:59 689K
20260503T06Z_MSC_RDPS_SpecificHumidity_IsbL-1000_RLatLon0.09_PT051H.grib2 2026-05-03 08:59 683K
20260503T06Z_MSC_RDPS_SpecificHumidity_IsbL-1015_RLatLon0.09_PT051H.grib2 2026-05-03 08:59 676K
20260503T06Z_MSC_RDPS_SpecificHumidity_Sfc_RLatLon0.09_PT051H.grib2 2026-05-03 08:59 296K
20260503T06Z_MSC_RDPS_StormRelativeHelicity_EtaL-10000_RLatLon0.09_PT051H.grib2 2026-05-03 08:59 1.1M
20260503T06Z_MSC_RDPS_StormSeverityIndex_EtaL-10000_RLatLon0.09_PT051H.grib2 2026-05-03 08:59 1.1M
20260503T06Z_MSC_RDPS_Thickness_IsbL-0850to0700_RLatLon0.09_PT051H.grib2 2026-05-03 08:59 179K
20260503T06Z_MSC_RDPS_Thickness_IsbL-1000to0500_RLatLon0.09_PT051H.grib2 2026-05-03 08:59 199K
20260503T06Z_MSC_RDPS_Thickness_IsbL-1000to0850_RLatLon0.09_PT051H.grib2 2026-05-03 08:59 262K
20260503T06Z_MSC_RDPS_TotalCloudCover_Sfc_RLatLon0.09_PT051H.grib2 2026-05-03 08:59 678K
20260503T06Z_MSC_RDPS_TotalTotalsIndex_Sfc_RLatLon0.09_PT051H.grib2 2026-05-03 08:59 2.4M
20260503T06Z_MSC_RDPS_UVIndex-ClearSky_Sfc_RLatLon0.09_PT051H.grib2 2026-05-03 08:59 84K
20260503T06Z_MSC_RDPS_UVIndex_Sfc_RLatLon0.09_PT051H.grib2 2026-05-03 08:59 173K
20260503T06Z_MSC_RDPS_UpwardLongwaveRadiationFlux_NTAtm_RLatLon0.09_PT051H.grib2 2026-05-03 08:59 494K
20260503T06Z_MSC_RDPS_UpwardShortwaveRadiationFlux_NTAtm_RLatLon0.09_PT051H.grib2 2026-05-03 08:59 175K
20260503T06Z_MSC_RDPS_VerticalVelocity_IsbL-0250_RLatLon0.09_PT051H.grib2 2026-05-03 08:59 441K
20260503T06Z_MSC_RDPS_VerticalVelocity_IsbL-0500_RLatLon0.09_PT051H.grib2 2026-05-03 08:59 554K
20260503T06Z_MSC_RDPS_VerticalVelocity_IsbL-0700_RLatLon0.09_PT051H.grib2 2026-05-03 08:59 561K
20260503T06Z_MSC_RDPS_VerticalVelocity_IsbL-0850_RLatLon0.09_PT051H.grib2 2026-05-03 08:59 714K
20260503T06Z_MSC_RDPS_VerticalWindShear_EtaL-6500_RLatLon0.09_PT051H.grib2 2026-05-03 08:59 1.2M
20260503T06Z_MSC_RDPS_WindChill_Sfc_RLatLon0.09_PT051H.grib2 2026-05-03 08:59 1.2M
20260503T06Z_MSC_RDPS_WindDir_AGL-10m_RLatLon0.09_PT051H.grib2 2026-05-03 08:59 973K
20260503T06Z_MSC_RDPS_WindDir_AGL-120m_RLatLon0.09_PT051H.grib2 2026-05-03 08:59 603K
20260503T06Z_MSC_RDPS_WindDir_AGL-40m_RLatLon0.09_PT051H.grib2 2026-05-03 08:59 636K
20260503T06Z_MSC_RDPS_WindDir_AGL-80m_RLatLon0.09_PT051H.grib2 2026-05-03 08:59 616K
20260503T06Z_MSC_RDPS_WindDir_IsbL-0001_RLatLon0.09_PT051H.grib2 2026-05-03 08:59 304K
20260503T06Z_MSC_RDPS_WindDir_IsbL-0005_RLatLon0.09_PT051H.grib2 2026-05-03 08:59 399K
20260503T06Z_MSC_RDPS_WindDir_IsbL-0010_RLatLon0.09_PT051H.grib2 2026-05-03 08:59 388K
20260503T06Z_MSC_RDPS_WindDir_IsbL-0020_RLatLon0.09_PT051H.grib2 2026-05-03 08:59 414K
20260503T06Z_MSC_RDPS_WindDir_IsbL-0030_RLatLon0.09_PT051H.grib2 2026-05-03 08:59 420K
20260503T06Z_MSC_RDPS_WindDir_IsbL-0050_RLatLon0.09_PT051H.grib2 2026-05-03 08:59 431K
20260503T06Z_MSC_RDPS_WindDir_IsbL-0100_RLatLon0.09_PT051H.grib2 2026-05-03 08:59 423K
20260503T06Z_MSC_RDPS_WindDir_IsbL-0150_RLatLon0.09_PT051H.grib2 2026-05-03 08:59 407K
20260503T06Z_MSC_RDPS_WindDir_IsbL-0175_RLatLon0.09_PT051H.grib2 2026-05-03 08:59 434K
20260503T06Z_MSC_RDPS_WindDir_IsbL-0200_RLatLon0.09_PT051H.grib2 2026-05-03 08:59 444K
20260503T06Z_MSC_RDPS_WindDir_IsbL-0225_RLatLon0.09_PT051H.grib2 2026-05-03 08:59 449K
20260503T06Z_MSC_RDPS_WindDir_IsbL-0250_RLatLon0.09_PT051H.grib2 2026-05-03 08:59 454K
20260503T06Z_MSC_RDPS_WindDir_IsbL-0275_RLatLon0.09_PT051H.grib2 2026-05-03 08:59 472K
20260503T06Z_MSC_RDPS_WindDir_IsbL-0300_RLatLon0.09_PT051H.grib2 2026-05-03 08:59 477K
20260503T06Z_MSC_RDPS_WindDir_IsbL-0350_RLatLon0.09_PT051H.grib2 2026-05-03 08:59 495K
20260503T06Z_MSC_RDPS_WindDir_IsbL-0400_RLatLon0.09_PT051H.grib2 2026-05-03 08:59 514K
20260503T06Z_MSC_RDPS_WindDir_IsbL-0450_RLatLon0.09_PT051H.grib2 2026-05-03 08:59 527K
20260503T06Z_MSC_RDPS_WindDir_IsbL-0500_RLatLon0.09_PT051H.grib2 2026-05-03 08:59 539K
20260503T06Z_MSC_RDPS_WindDir_IsbL-0550_RLatLon0.09_PT051H.grib2 2026-05-03 08:59 550K
20260503T06Z_MSC_RDPS_WindDir_IsbL-0600_RLatLon0.09_PT051H.grib2 2026-05-03 08:59 574K
20260503T06Z_MSC_RDPS_WindDir_IsbL-0650_RLatLon0.09_PT051H.grib2 2026-05-03 08:59 613K
20260503T06Z_MSC_RDPS_WindDir_IsbL-0700_RLatLon0.09_PT051H.grib2 2026-05-03 08:59 655K
20260503T06Z_MSC_RDPS_WindDir_IsbL-0750_RLatLon0.09_PT051H.grib2 2026-05-03 08:59 707K
20260503T06Z_MSC_RDPS_WindDir_IsbL-0800_RLatLon0.09_PT051H.grib2 2026-05-03 08:59 775K
20260503T06Z_MSC_RDPS_WindDir_IsbL-0850_RLatLon0.09_PT051H.grib2 2026-05-03 08:59 867K
20260503T06Z_MSC_RDPS_WindDir_IsbL-0875_RLatLon0.09_PT051H.grib2 2026-05-03 08:59 900K
20260503T06Z_MSC_RDPS_WindDir_IsbL-0900_RLatLon0.09_PT051H.grib2 2026-05-03 08:59 916K
20260503T06Z_MSC_RDPS_WindDir_IsbL-0925_RLatLon0.09_PT051H.grib2 2026-05-03 08:59 919K
20260503T06Z_MSC_RDPS_WindDir_IsbL-0950_RLatLon0.09_PT051H.grib2 2026-05-03 08:59 914K
20260503T06Z_MSC_RDPS_WindDir_IsbL-0970_RLatLon0.09_PT051H.grib2 2026-05-03 08:59 919K
20260503T06Z_MSC_RDPS_WindDir_IsbL-0985_RLatLon0.09_PT051H.grib2 2026-05-03 08:59 928K
20260503T06Z_MSC_RDPS_WindDir_IsbL-1000_RLatLon0.09_PT051H.grib2 2026-05-03 08:59 944K
20260503T06Z_MSC_RDPS_WindDir_IsbL-1015_RLatLon0.09_PT051H.grib2 2026-05-03 08:59 962K
20260503T06Z_MSC_RDPS_WindGust-Max_AGL-10m_RLatLon0.09_PT051H.grib2 2026-05-03 08:59 1.0M
20260503T06Z_MSC_RDPS_WindGust-Min_AGL-10m_RLatLon0.09_PT051H.grib2 2026-05-03 08:59 1.0M
20260503T06Z_MSC_RDPS_WindGust_AGL-10m_RLatLon0.09_PT051H.grib2 2026-05-03 08:59 1.0M
20260503T06Z_MSC_RDPS_WindSpeed_AGL-10m_RLatLon0.09_PT051H.grib2 2026-05-03 08:59 857K
20260503T06Z_MSC_RDPS_WindSpeed_AGL-120m_RLatLon0.09_PT051H.grib2 2026-05-03 08:59 551K
20260503T06Z_MSC_RDPS_WindSpeed_AGL-40m_RLatLon0.09_PT051H.grib2 2026-05-03 08:59 555K
20260503T06Z_MSC_RDPS_WindSpeed_AGL-80m_RLatLon0.09_PT051H.grib2 2026-05-03 08:59 552K
20260503T06Z_MSC_RDPS_WindSpeed_IsbL-0001_RLatLon0.09_PT051H.grib2 2026-05-03 08:59 335K
20260503T06Z_MSC_RDPS_WindSpeed_IsbL-0005_RLatLon0.09_PT051H.grib2 2026-05-03 08:59 391K
20260503T06Z_MSC_RDPS_WindSpeed_IsbL-0010_RLatLon0.09_PT051H.grib2 2026-05-03 08:59 369K
20260503T06Z_MSC_RDPS_WindSpeed_IsbL-0020_RLatLon0.09_PT051H.grib2 2026-05-03 08:59 423K
20260503T06Z_MSC_RDPS_WindSpeed_IsbL-0030_RLatLon0.09_PT051H.grib2 2026-05-03 08:59 323K
20260503T06Z_MSC_RDPS_WindSpeed_IsbL-0050_RLatLon0.09_PT051H.grib2 2026-05-03 08:59 356K
20260503T06Z_MSC_RDPS_WindSpeed_IsbL-0100_RLatLon0.09_PT051H.grib2 2026-05-03 08:59 483K
20260503T06Z_MSC_RDPS_WindSpeed_IsbL-0150_RLatLon0.09_PT051H.grib2 2026-05-03 08:59 383K
20260503T06Z_MSC_RDPS_WindSpeed_IsbL-0175_RLatLon0.09_PT051H.grib2 2026-05-03 08:59 429K
20260503T06Z_MSC_RDPS_WindSpeed_IsbL-0200_RLatLon0.09_PT051H.grib2 2026-05-03 08:59 442K
20260503T06Z_MSC_RDPS_WindSpeed_IsbL-0225_RLatLon0.09_PT051H.grib2 2026-05-03 08:59 448K
20260503T06Z_MSC_RDPS_WindSpeed_IsbL-0250_RLatLon0.09_PT051H.grib2 2026-05-03 08:59 450K
20260503T06Z_MSC_RDPS_WindSpeed_IsbL-0275_RLatLon0.09_PT051H.grib2 2026-05-03 08:59 466K
20260503T06Z_MSC_RDPS_WindSpeed_IsbL-0300_RLatLon0.09_PT051H.grib2 2026-05-03 08:59 464K
20260503T06Z_MSC_RDPS_WindSpeed_IsbL-0350_RLatLon0.09_PT051H.grib2 2026-05-03 08:59 477K
20260503T06Z_MSC_RDPS_WindSpeed_IsbL-0400_RLatLon0.09_PT051H.grib2 2026-05-03 08:59 479K
20260503T06Z_MSC_RDPS_WindSpeed_IsbL-0450_RLatLon0.09_PT051H.grib2 2026-05-03 08:59 465K
20260503T06Z_MSC_RDPS_WindSpeed_IsbL-0500_RLatLon0.09_PT051H.grib2 2026-05-03 08:59 467K
20260503T06Z_MSC_RDPS_WindSpeed_IsbL-0550_RLatLon0.09_PT051H.grib2 2026-05-03 08:59 465K
20260503T06Z_MSC_RDPS_WindSpeed_IsbL-0600_RLatLon0.09_PT051H.grib2 2026-05-03 08:59 591K
20260503T06Z_MSC_RDPS_WindSpeed_IsbL-0650_RLatLon0.09_PT051H.grib2 2026-05-03 08:59 611K
20260503T06Z_MSC_RDPS_WindSpeed_IsbL-0700_RLatLon0.09_PT051H.grib2 2026-05-03 08:59 674K
20260503T06Z_MSC_RDPS_WindSpeed_IsbL-0750_RLatLon0.09_PT051H.grib2 2026-05-03 08:59 705K
20260503T06Z_MSC_RDPS_WindSpeed_IsbL-0800_RLatLon0.09_PT051H.grib2 2026-05-03 08:59 760K
20260503T06Z_MSC_RDPS_WindSpeed_IsbL-0850_RLatLon0.09_PT051H.grib2 2026-05-03 08:59 833K
20260503T06Z_MSC_RDPS_WindSpeed_IsbL-0875_RLatLon0.09_PT051H.grib2 2026-05-03 08:59 859K
20260503T06Z_MSC_RDPS_WindSpeed_IsbL-0900_RLatLon0.09_PT051H.grib2 2026-05-03 08:59 874K
20260503T06Z_MSC_RDPS_WindSpeed_IsbL-0925_RLatLon0.09_PT051H.grib2 2026-05-03 08:59 884K
20260503T06Z_MSC_RDPS_WindSpeed_IsbL-0950_RLatLon0.09_PT051H.grib2 2026-05-03 08:59 884K
20260503T06Z_MSC_RDPS_WindSpeed_IsbL-0970_RLatLon0.09_PT051H.grib2 2026-05-03 08:59 880K
20260503T06Z_MSC_RDPS_WindSpeed_IsbL-0985_RLatLon0.09_PT051H.grib2 2026-05-03 08:59 870K
20260503T06Z_MSC_RDPS_WindSpeed_IsbL-1000_RLatLon0.09_PT051H.grib2 2026-05-03 08:59 864K
20260503T06Z_MSC_RDPS_WindSpeed_IsbL-1015_RLatLon0.09_PT051H.grib2 2026-05-03 08:59 857K
20260503T06Z_MSC_RDPS_WindU_AGL-10m_RLatLon0.09_PT051H.grib2 2026-05-03 08:59 438K
20260503T06Z_MSC_RDPS_WindU_AGL-120m_RLatLon0.09_PT051H.grib2 2026-05-03 08:59 425K
20260503T06Z_MSC_RDPS_WindU_AGL-40m_RLatLon0.09_PT051H.grib2 2026-05-03 08:59 547K
20260503T06Z_MSC_RDPS_WindU_AGL-80m_RLatLon0.09_PT051H.grib2 2026-05-03 08:59 545K
20260503T06Z_MSC_RDPS_WindU_IsbL-0001_RLatLon0.09_PT051H.grib2 2026-05-03 08:59 245K
20260503T06Z_MSC_RDPS_WindU_IsbL-0005_RLatLon0.09_PT051H.grib2 2026-05-03 08:59 285K
20260503T06Z_MSC_RDPS_WindU_IsbL-0010_RLatLon0.09_PT051H.grib2 2026-05-03 08:59 297K
20260503T06Z_MSC_RDPS_WindU_IsbL-0020_RLatLon0.09_PT051H.grib2 2026-05-03 08:59 315K
20260503T06Z_MSC_RDPS_WindU_IsbL-0030_RLatLon0.09_PT051H.grib2 2026-05-03 08:59 354K
20260503T06Z_MSC_RDPS_WindU_IsbL-0050_RLatLon0.09_PT051H.grib2 2026-05-03 08:59 384K
20260503T06Z_MSC_RDPS_WindU_IsbL-0100_RLatLon0.09_PT051H.grib2 2026-05-03 08:59 339K
20260503T06Z_MSC_RDPS_WindU_IsbL-0150_RLatLon0.09_PT051H.grib2 2026-05-03 08:59 398K
20260503T06Z_MSC_RDPS_WindU_IsbL-0175_RLatLon0.09_PT051H.grib2 2026-05-03 08:59 326K
20260503T06Z_MSC_RDPS_WindU_IsbL-0200_RLatLon0.09_PT051H.grib2 2026-05-03 08:59 337K
20260503T06Z_MSC_RDPS_WindU_IsbL-0225_RLatLon0.09_PT051H.grib2 2026-05-03 08:59 341K
20260503T06Z_MSC_RDPS_WindU_IsbL-0250_RLatLon0.09_PT051H.grib2 2026-05-03 08:59 341K
20260503T06Z_MSC_RDPS_WindU_IsbL-0275_RLatLon0.09_PT051H.grib2 2026-05-03 08:59 355K
20260503T06Z_MSC_RDPS_WindU_IsbL-0300_RLatLon0.09_PT051H.grib2 2026-05-03 08:59 352K
20260503T06Z_MSC_RDPS_WindU_IsbL-0350_RLatLon0.09_PT051H.grib2 2026-05-03 08:59 363K
20260503T06Z_MSC_RDPS_WindU_IsbL-0400_RLatLon0.09_PT051H.grib2 2026-05-03 08:59 364K
20260503T06Z_MSC_RDPS_WindU_IsbL-0450_RLatLon0.09_PT051H.grib2 2026-05-03 08:59 469K
20260503T06Z_MSC_RDPS_WindU_IsbL-0500_RLatLon0.09_PT051H.grib2 2026-05-03 08:59 472K
20260503T06Z_MSC_RDPS_WindU_IsbL-0550_RLatLon0.09_PT051H.grib2 2026-05-03 08:59 472K
20260503T06Z_MSC_RDPS_WindU_IsbL-0600_RLatLon0.09_PT051H.grib2 2026-05-03 08:59 480K
20260503T06Z_MSC_RDPS_WindU_IsbL-0650_RLatLon0.09_PT051H.grib2 2026-05-03 08:59 498K
20260503T06Z_MSC_RDPS_WindU_IsbL-0700_RLatLon0.09_PT051H.grib2 2026-05-03 08:59 501K
20260503T06Z_MSC_RDPS_WindU_IsbL-0750_RLatLon0.09_PT051H.grib2 2026-05-03 08:59 528K
20260503T06Z_MSC_RDPS_WindU_IsbL-0800_RLatLon0.09_PT051H.grib2 2026-05-03 08:59 576K
20260503T06Z_MSC_RDPS_WindU_IsbL-0850_RLatLon0.09_PT051H.grib2 2026-05-03 08:59 639K
20260503T06Z_MSC_RDPS_WindU_IsbL-0875_RLatLon0.09_PT051H.grib2 2026-05-03 08:59 661K
20260503T06Z_MSC_RDPS_WindU_IsbL-0900_RLatLon0.09_PT051H.grib2 2026-05-03 08:59 672K
20260503T06Z_MSC_RDPS_WindU_IsbL-0925_RLatLon0.09_PT051H.grib2 2026-05-03 08:59 676K
20260503T06Z_MSC_RDPS_WindU_IsbL-0950_RLatLon0.09_PT051H.grib2 2026-05-03 08:59 672K
20260503T06Z_MSC_RDPS_WindU_IsbL-0970_RLatLon0.09_PT051H.grib2 2026-05-03 08:59 666K
20260503T06Z_MSC_RDPS_WindU_IsbL-0985_RLatLon0.09_PT051H.grib2 2026-05-03 08:59 801K
20260503T06Z_MSC_RDPS_WindU_IsbL-1000_RLatLon0.09_PT051H.grib2 2026-05-03 08:59 797K
20260503T06Z_MSC_RDPS_WindU_IsbL-1015_RLatLon0.09_PT051H.grib2 2026-05-03 08:59 792K
20260503T06Z_MSC_RDPS_WindV_AGL-10m_RLatLon0.09_PT051H.grib2 2026-05-03 08:59 440K
20260503T06Z_MSC_RDPS_WindV_AGL-120m_RLatLon0.09_PT051H.grib2 2026-05-03 08:59 544K
20260503T06Z_MSC_RDPS_WindV_AGL-40m_RLatLon0.09_PT051H.grib2 2026-05-03 08:59 548K
20260503T06Z_MSC_RDPS_WindV_AGL-80m_RLatLon0.09_PT051H.grib2 2026-05-03 08:59 546K
20260503T06Z_MSC_RDPS_WindV_IsbL-0001_RLatLon0.09_PT051H.grib2 2026-05-03 08:59 250K
20260503T06Z_MSC_RDPS_WindV_IsbL-0005_RLatLon0.09_PT051H.grib2 2026-05-03 08:59 291K
20260503T06Z_MSC_RDPS_WindV_IsbL-0010_RLatLon0.09_PT051H.grib2 2026-05-03 08:59 302K
20260503T06Z_MSC_RDPS_WindV_IsbL-0020_RLatLon0.09_PT051H.grib2 2026-05-03 08:59 319K
20260503T06Z_MSC_RDPS_WindV_IsbL-0030_RLatLon0.09_PT051H.grib2 2026-05-03 08:59 356K
20260503T06Z_MSC_RDPS_WindV_IsbL-0050_RLatLon0.09_PT051H.grib2 2026-05-03 08:59 350K
20260503T06Z_MSC_RDPS_WindV_IsbL-0100_RLatLon0.09_PT051H.grib2 2026-05-03 08:59 338K
20260503T06Z_MSC_RDPS_WindV_IsbL-0150_RLatLon0.09_PT051H.grib2 2026-05-03 08:59 396K
20260503T06Z_MSC_RDPS_WindV_IsbL-0175_RLatLon0.09_PT051H.grib2 2026-05-03 08:59 325K
20260503T06Z_MSC_RDPS_WindV_IsbL-0200_RLatLon0.09_PT051H.grib2 2026-05-03 08:59 336K
20260503T06Z_MSC_RDPS_WindV_IsbL-0225_RLatLon0.09_PT051H.grib2 2026-05-03 08:59 365K
20260503T06Z_MSC_RDPS_WindV_IsbL-0250_RLatLon0.09_PT051H.grib2 2026-05-03 08:59 367K
20260503T06Z_MSC_RDPS_WindV_IsbL-0275_RLatLon0.09_PT051H.grib2 2026-05-03 08:59 379K
20260503T06Z_MSC_RDPS_WindV_IsbL-0300_RLatLon0.09_PT051H.grib2 2026-05-03 08:59 376K
20260503T06Z_MSC_RDPS_WindV_IsbL-0350_RLatLon0.09_PT051H.grib2 2026-05-03 08:59 360K
20260503T06Z_MSC_RDPS_WindV_IsbL-0400_RLatLon0.09_PT051H.grib2 2026-05-03 08:59 363K
20260503T06Z_MSC_RDPS_WindV_IsbL-0450_RLatLon0.09_PT051H.grib2 2026-05-03 08:59 366K
20260503T06Z_MSC_RDPS_WindV_IsbL-0500_RLatLon0.09_PT051H.grib2 2026-05-03 08:59 470K
20260503T06Z_MSC_RDPS_WindV_IsbL-0550_RLatLon0.09_PT051H.grib2 2026-05-03 08:59 470K
20260503T06Z_MSC_RDPS_WindV_IsbL-0600_RLatLon0.09_PT051H.grib2 2026-05-03 08:59 478K
20260503T06Z_MSC_RDPS_WindV_IsbL-0650_RLatLon0.09_PT051H.grib2 2026-05-03 08:59 478K
20260503T06Z_MSC_RDPS_WindV_IsbL-0700_RLatLon0.09_PT051H.grib2 2026-05-03 08:59 496K
20260503T06Z_MSC_RDPS_WindV_IsbL-0750_RLatLon0.09_PT051H.grib2 2026-05-03 08:59 523K
20260503T06Z_MSC_RDPS_WindV_IsbL-0800_RLatLon0.09_PT051H.grib2 2026-05-03 08:59 572K
20260503T06Z_MSC_RDPS_WindV_IsbL-0850_RLatLon0.09_PT051H.grib2 2026-05-03 08:59 636K
20260503T06Z_MSC_RDPS_WindV_IsbL-0875_RLatLon0.09_PT051H.grib2 2026-05-03 08:59 658K
20260503T06Z_MSC_RDPS_WindV_IsbL-0900_RLatLon0.09_PT051H.grib2 2026-05-03 08:59 670K
20260503T06Z_MSC_RDPS_WindV_IsbL-0925_RLatLon0.09_PT051H.grib2 2026-05-03 08:59 676K
20260503T06Z_MSC_RDPS_WindV_IsbL-0950_RLatLon0.09_PT051H.grib2 2026-05-03 08:59 671K
20260503T06Z_MSC_RDPS_WindV_IsbL-0970_RLatLon0.09_PT051H.grib2 2026-05-03 08:59 668K
20260503T06Z_MSC_RDPS_WindV_IsbL-0985_RLatLon0.09_PT051H.grib2 2026-05-03 08:59 804K
20260503T06Z_MSC_RDPS_WindV_IsbL-1000_RLatLon0.09_PT051H.grib2 2026-05-03 08:59 798K
20260503T06Z_MSC_RDPS_WindV_IsbL-1015_RLatLon0.09_PT051H.grib2 2026-05-03 08:59 840K